This demonstration page uses our WeatherBlox Daily Observations layout. Learn more.

Left ArrowRight Arrow

39.51506, -84.39828

Hourly Observations for March 8, 2017

Temp ( °F °C ) Dew Point ( °F °C ) Humidity (%) Winds ( mph kmh ) Pressure ( in mb ) Visibility ( mi km ) Precip ( " mm )
12:15 am 00:15 Clear 40 4.7 32 0.2 73 73 SW 6 9 30.18 1022 10 16 0.00 0.00
12:35 am 00:35 Clear 41 4.8 31 -0.4 69 69 SW 5 7 30.18 1022 10 16 0.00 0.00
12:55 am 00:55 Clear 39 4 31 -0.3 74 74 SW 7 11 30.18 1022 10 16 0.00 0.00
1:15 am 01:15 Clear 39 4 31 -0.4 73 73 SW 6 9 30.18 1022 10 16 0.00 0.00
1:35 am 01:35 Clear 39 4 32 -0.2 74 74 SSW 8 13 30.18 1022 10 16 0.00 0.00
1:55 am 01:55 Clear 40 4.7 32 0 72 72 SSW 7 11 30.18 1022 10 16 0.00 0.00
2:15 am 02:15 Clear 40 4.2 32 -0.2 73 73 S 8 13 30.18 1022 10 16 0.00 0.00
2:35 am 02:35 Clear 39 4 31 -0.5 73 73 SSW 7 11 30.18 1022 10 16 0.00 0.00
2:55 am 02:55 Clear 39 4 32 -0.1 75 75 SSW 7 11 30.18 1022 10 16 0.00 0.00
3:15 am 03:15 Clear 39 4 31 -0.7 72 72 SSW 9 15 30.18 1022 10 16 0.00 0.00
3:35 am 03:35 Clear 39 4 31 -0.5 73 73 SSW 8 13 30.18 1022 10 16 0.00 0.00
3:55 am 03:55 Clear 40 4.4 30 -0.9 69 69 SSW 9 15 30.18 1022 10 16 0.00 0.00
4:15 am 04:15 Clear 40 4.7 31 -0.8 68 68 SSW 10 17 30.18 1022 10 16 0.00 0.00
4:35 am 04:35 Clear 40 4.4 30 -1 68 68 SSW 9 15 30.18 1022 10 16 0.00 0.00
4:55 am 04:55 Clear 40 4.6 30 -1.3 66 66 SSW 8 13 30.18 1022 10 16 0.00 0.00
5:15 am 05:15 Partly Cloudy 40 4.4 29 -1.8 64 64 SSW 9 15 30.18 1022 10 16 0.00 0.00
5:35 am 05:35 Partly Cloudy 41 4.9 28 -2.2 60 60 SSW 10 17 30.18 1022 10 16 0.00 0.00
5:55 am 05:55 Partly Cloudy 42 5.5 28 -2.4 57 57 SSW 13 20 30.15 1021 10 16 0.00 0.00
6:15 am 06:15 Partly Cloudy 42 5.5 28 -2.5 57 57 SSW 12 19 30.15 1021 10 16 0.00 0.00
6:35 am 06:35 Clear 41 5.2 27 -2.8 57 57 SW 10 17 30.15 1021 10 16 0.00 0.00
6:55 am 06:55 Clear 42 5.5 26 -3.2 54 54 SW 13 20 30.15 1021 10 16 0.00 0.00
7:15 am 07:15 Sunny 42 5.5 27 -3 55 55 SW 8 13 30.15 1021 10 16 0.00 0.00
7:35 am 07:35 Sunny 41 5.2 28 -2.4 58 58 SSW 8 13 30.18 1022 10 16 0.00 0.00
7:55 am 07:55 Sunny 42 5.5 28 -2 59 59 SW 8 13 30.18 1022 10 16 0.00 0.00
8:15 am 08:15 Sunny 43 6.2 28 -2.1 56 56 SSW 10 17 30.18 1022 10 16 0.00 0.00
8:35 am 08:35 Sunny 47 8.2 31 -0.7 54 54 SSW 9 15 30.18 1022 10 16 0.00 0.00
8:55 am 08:55 Sunny 49 9.6 31 -0.3 50 50 SW 12 19 30.18 1022 10 16 0.00 0.00
9:15 am 09:15 Sunny 49 9.6 29 -1.7 46 46 SW 13 20 30.18 1022 10 16 0.00 0.00
9:35 am 09:35 Sunny 49 9.6 27 -2.8 42 42 SW 15 24 30.18 1022 10 16 0.00 0.00
9:55 am 09:55 Sunny 51 10.8 28 -2.5 40 40 SSW 16 26 30.18 1022 10 16 0.00 0.00
10:15 am 10:15 Sunny 55 12.5 26 -3.4 33 33 SW 17 28 30.18 1022 10 16 0.00 0.00
10:35 am 10:35 Sunny 55 12.5 23 -5.1 29 29 SW 15 24 30.18 1022 10 16 0.00 0.00
10:55 am 10:55 Sunny 55 12.5 20 -6.9 25 25 SW 18 30 30.18 1022 10 16 0.00 0.00
11:15 am 11:15 Sunny 56 13.6 14 -10.2 18 18 SW 21 33 30.18 1022 10 16 0.00 0.00
11:35 am 11:35 Sunny 57 13.8 13 -10.5 18 18 WSW 20 31 30.18 1022 10 16 0.00 0.00
11:55 am 11:55 Sunny 59 15.1 4 -15.7 11 11 WSW 25 41 30.18 1022 10 16 0.00 0.00
12:15 pm 12:15 Sunny 57 13.9 -3 -19.6 8 8 SW 24 39 30.18 1022 10 16 0.00 0.00
12:35 pm 12:35 Sunny 59 15.1 4 -15.8 10 10 SW 20 31 30.18 1022 10 16 0.00 0.00
12:55 pm 12:55 Sunny 60 15.3 6 -14.5 11 11 WSW 20 31 30.18 1022 10 16 0.00 0.00
1:15 pm 13:15 Sunny 60 15.3 -5 -20.6 7 7 WSW 24 39 30.18 1022 10 16 0.00 0.00
1:35 pm 13:35 Sunny 60 15.5 -8 -22.1 6 6 W 22 35 30.15 1021 10 16 0.00 0.00
1:55 pm 13:55 Sunny 60 15.8 -3 -19.3 7 7 WSW 17 28 30.15 1021 10 16 0.00 0.00
2:15 pm 14:15 Sunny 60 15.8 -8 -22.1 6 6 WSW 22 35 30.15 1021 10 16 0.00 0.00
2:35 pm 14:35 Sunny 61 16 -6 -21 6 6 WSW 21 33 30.18 1022 10 16 0.00 0.00
2:55 pm 14:55 Sunny 61 16 -3 -19.2 7 7 WSW 21 33 30.18 1022 10 16 0.00 0.00
3:15 pm 15:15 Sunny 61 16 -6 -21 6 6 WSW 31 50 30.18 1022 10 16 0.00 0.00
3:35 pm 15:35 Sunny 61 15.9 -5 -20.5 7 7 WSW 29 46 30.18 1022 10 16 0.00 0.00
3:55 pm 15:55 Sunny 61 15.9 0 -18 8 8 W 21 33 30.18 1022 10 16 0.00 0.00
4:15 pm 16:15 Sunny 60 15.5 -1 -18.6 8 8 WSW 25 41 30.18 1022 10 16 0.00 0.00
4:35 pm 16:35 Sunny 60 15.3 0 -17.6 9 9 W 17 28 30.18 1022 10 16 0.00 0.00
4:55 pm 16:55 Sunny 60 15.3 0 -17.9 9 9 WSW 23 37 30.18 1022 10 16 0.00 0.00
5:15 pm 17:15 Sunny 60 15.3 0 -17.8 9 9 WSW 18 30 30.18 1022 10 16 0.00 0.00
5:35 pm 17:35 Sunny 60 15.3 1 -17.2 9 9 WSW 24 39 30.18 1022 10 16 0.00 0.00
5:55 pm 17:55 Sunny 60 15.3 2 -16.5 10 10 WSW 15 24 30.18 1022 10 16 0.00 0.00
6:15 pm 18:15 Sunny 57 14 4 -15.5 12 12 WSW 15 24 30.18 1022 10 16 0.00 0.00
6:35 pm 18:35 Sunny 57 13.8 5 -14.9 12 12 WSW 13 20 30.18 1022 10 16 0.00 0.00
6:55 pm 18:55 Clear 55 12.8 8 -13.2 15 15 WSW 10 17 30.18 1022 10 16 0.00 0.00
7:15 pm 19:15 Clear 55 12.5 12 -10.9 19 19 SW 8 13 30.18 1022 10 16 0.00 0.00
7:35 pm 19:35 Clear 52 11 15 -9.2 23 23 SW 8 13 30.18 1022 10 16 0.00 0.00
7:55 pm 19:55 Clear 52 11 16 -8.7 24 24 SW 8 13 30.18 1022 10 16 0.00 0.00
8:15 pm 20:15 Clear 51 10.8 17 -8.3 26 26 SW 8 13 30.21 1023 10 16 0.00 0.00
8:35 pm 20:35 Clear 49 9.6 20 -6.6 32 32 SW 7 11 30.21 1023 10 16 0.00 0.00
8:55 pm 20:55 Clear 49 9.6 21 -6.1 33 33 SW 8 13 30.21 1023 10 16 0.00 0.00
9:15 pm 21:15 Clear 49 9.6 23 -5.2 35 35 SSW 8 13 30.21 1023 10 16 0.00 0.00
9:35 pm 21:35 Clear 49 9.6 24 -4.7 36 36 SW 8 13 30.21 1023 10 16 0.00 0.00
9:55 pm 21:55 Clear 49 9.6 24 -4.4 37 37 SW 8 13 30.21 1023 10 16 0.00 0.00
10:15 pm 22:15 Clear 47 8.4 24 -4.5 40 40 SW 7 11 30.21 1023 10 16 0.00 0.00
10:35 pm 22:35 Clear 47 8.2 23 -4.8 40 40 SW 7 11 30.21 1023 10 16 0.00 0.00
10:55 pm 22:55 Clear 49 9.6 23 -5.1 35 35 SW 3 6 30.21 1023 10 16 0.00 0.00
11:15 pm 23:15 Clear 49 9.6 22 -5.6 34 34 SW 3 6 30.21 1023 10 16 0.00 0.00
11:35 pm 23:35 Clear 49 9.6 23 -5.1 35 35 SW 5 7 30.21 1023 10 16 0.00 0.00
11:55 pm 23:55 Clear 48 8.8 24 -4.7 38 38 SW 5 7 30.21 1023 10 16 0.00 0.00

Powered by AerisWeather